Regional Weather Roundup
Issued by NWS

Home | Current Version | Previous Version | Graphics & Text | Print | Product List | Glossary On
Versions: 1 2 3 4 5 6 7 8 9 10 11 12 13 14 15 16 17 18 19 20 21 22 23 24 25 26 27 28 29 30 31 32 33 34 35 36 37 38 39 40 41 42 43 44 45 46 47 48 49 50
000
ASUS43 KFSD 241810
RWRSD

WEATHER ROUNDUP FOR SOUTH DAKOTA
NATIONAL WEATHER SERVICE SIOUX FALLS SD
100 PM CDT WED MAY 24 2017

NOTE: "FAIR" INDICATES FEW OR NO CLOUDS BELOW 12,000 FEET WITH NO
SIGNIFICANT WEATHER AND/OR OBSTRUCTIONS TO VISIBILITY.


SDZ001>005-009-010-012>017-241900-
NORTHWEST AND NORTH CENTRAL SOUTH DAKOTA

CITY           SKY/WX    TMP DP  RH WIND       PRES   REMARKS
BUFFALO          N/A     68  40  35 SE30G38   29.44F
FAITH            N/A     64  39  39 S24G32    29.60F
MOBRIDGE       SUNNY     62  40  44 S17G25    29.64F
$$

SDZ012>016-024>037-041>051-057-063-072>074-241900-
SOUTHWEST AND SOUTH CENTRAL SOUTH DAKOTA

CITY           SKY/WX    TMP DP  RH WIND       PRES   REMARKS
RAPID CTY ARPT SUNNY     68  42  38 S22G30    29.57F
PIERRE         SUNNY     62  41  46 S12G24    29.66F
CUSTER         SUNNY     63  33  32 S8G16     29.64F
ELLSWORTH AFB  SUNNY     67  42  40 S23G31    29.55F
PHILIP         SUNNY     67  39  35 SE16      29.62F
PINE RIDGE     SUNNY     68  44  42 S17G24    29.62F
SPEARFISH      FAIR      70  46  43 E6        29.53F
WINNER         FAIR      62  45  53 S14       29.71F
$$

SDZ004>011-016>023-039-040-241900-
NORTHEAST SOUTH DAKOTA

CITY           SKY/WX    TMP DP  RH WIND       PRES   REMARKS
ABERDEEN       PTSUNNY   62  40  44 SE10      29.71F
WATERTOWN      CLOUDY    57  44  62 SE8       29.72F
BROOKINGS      CLOUDY    56  44  64 SE5       29.74F
SISSETON         N/A     58  45  62 S8        29.73F
$$

SDZ017-020-022-023-036>040-048>070-241900-
SOUTHEAST SOUTH DAKOTA

CITY           SKY/WX    TMP DP  RH WIND       PRES   REMARKS
SIOUX FALLS    PTSUNNY   59  46  62 CALM      29.74F
HURON          PTSUNNY   62  46  55 SE12      29.72F
CHAMBERLAIN    PTSUNNY   60  45  57 S5G16     29.71F
MITCHELL       PTSUNNY   62  45  53 S7        29.73F
YANKTON        CLOUDY    58  46  64 CALM      29.75F
$$

ABBREVIATIONS USED IN REMARKS
   TC - TEMPERATURE IN CELSIUS
  WCI - WIND CHILL INDEX
   HX - HEAT INDEX
  VSB - VISIBILITY




USA.gov is the U.S. government's official web portal to all federal, state and local government web resources and services.